Location: Newark
(19.4333°N, 15.3500°W)
Time: 06:53:28
(UTC+00:00)

LightSail 2 - Visible Passes

Search period start: 13 November 2019 00:00
Search period end: 23 November 2019 00:00
Orbit: 701 x 726 km, 24.0° (Epoch: 11 November)

Date Brightness Start Highest point End Pass type
(mag) Time Alt. Az. Time Alt. Az. Time Alt. Az.
13 Nov 6.0 05:02:16 42° NE 05:02:16 42° NE 05:06:01 10° ENE visible
13 Nov 5.6 06:41:41 10° WNW 06:46:46 53° N 06:51:52 10° E visible
14 Nov 8.2 04:08:04 10° ENE 04:08:04 10° ENE 04:08:05 10° ENE visible
14 Nov 5.5 05:47:03 35° NW 05:48:47 51° N 05:53:51 10° ENE visible
15 Nov 6.6 04:52:48 32° NE 04:52:48 32° NE 04:55:51 10° ENE visible
15 Nov 5.4 06:31:47 12° WNW 06:36:39 63° N 06:41:49 10° E visible
16 Nov 5.4 05:37:31 45° NW 05:38:40 56° N 05:43:47 10° E visible
17 Nov 7.0 04:43:15 27° ENE 04:43:15 27° ENE 04:45:44 10° E visible
17 Nov 5.2 06:22:14 16° WNW 06:26:26 82° NNE 06:31:40 10° ESE visible
18 Nov 5.1 05:27:57 63° NNW 05:28:28 69° N 05:33:39 10° E visible
19 Nov 7.3 04:33:40 23° E 04:33:40 23° E 04:35:36 10° E visible
19 Nov 5.3 06:12:38 21° W 06:16:07 69° SSW 06:21:18 10° ESE visible
20 Nov 5.1 05:18:21 84° SE 05:18:21 84° SE 05:23:23 10° ESE visible
21 Nov 7.7 04:24:05 18° E 04:24:05 18° E 04:25:24 10° E visible
21 Nov 5.8 06:03:03 24° W 06:05:43 43° SSW 06:10:38 10° SE visible
21 Nov 7.4 20:17:17 10° S 20:18:42 13° SSE 20:18:42 13° SSE visible
22 Nov 5.8 05:08:47 49° SSE 05:08:47 49° SSE 05:12:52 10° ESE visible
22 Nov 7.8 21:02:40 10° SW 21:03:24 14° SW 21:03:24 14° SW visible
